This is the latest recevied weather packets stored in our database for station/object W4ZHA. If no packets are shown the sender has not sent any weather packets the latest 10 day(s).
| Time | Temp. | Humidity | Pressure | Rain* | Wind** | Luminosity | Snow |
|---|---|---|---|---|---|---|---|
| 1788120928 | 33.89° C | 47% | 1019.6 hPa | 0 mm | - | 451 W/m² | - |
| 1788120623 | 35° C | 46% | 1019.6 hPa | 0 mm | - | 457 W/m² | - |
| 1788120319 | 33.89° C | 47% | 1019.6 hPa | 0 mm | - | 475 W/m² | - |
| 1788120017 | 35° C | 45% | 1020 hPa | 0 mm | - | 474 W/m² | - |
| 1788119713 | 35° C | 46% | 1020 hPa | 0 mm | - | 470 W/m² | - |
| 1788119411 | 32.78° C | 45% | 1020 hPa | 0 mm | - | 470 W/m² | - |
| 1788119110 | 33.33° C | 46% | 1020 hPa | 0 mm | - | 471 W/m² | - |
| 1788118805 | 34.44° C | 46% | 1020 hPa | 0 mm | - | 464 W/m² | - |
| 1788118504 | 35° C | 45% | 1020 hPa | 0 mm | - | 474 W/m² | - |
| 1788118199 | 32.78° C | 47% | 1020 hPa | 0 mm | - | 476 W/m² | - |
| 1788117895 | 32.22° C | 46% | 1020.3 hPa | 0 mm | - | 480 W/m² | - |
| 1788117589 | 32.78° C | 47% | 1020.3 hPa | 0 mm | - | 481 W/m² | - |
| 1788117284 | 33.33° C | 47% | 1020.3 hPa | 0 mm | - | 475 W/m² | - |
| 1788116980 | 32.78° C | 47% | 1020.6 hPa | 0 mm | - | 480 W/m² | - |
| 1788116675 | 31.11° C | 53% | 1020.6 hPa | 0 mm | - | 470 W/m² | - |
| 1788116374 | 31.67° C | 54% | 1020.6 hPa | 0 mm | - | 474 W/m² | - |
| 1788116069 | 32.22° C | 53% | 1020.6 hPa | 0 mm | - | 477 W/m² | - |
| 1788115765 | 31.67° C | 54% | 1021 hPa | 0 mm | - | 468 W/m² | - |
| 1788115463 | 31.11° C | 54% | 1020.6 hPa | 0 mm | - | 468 W/m² | - |
| 1788115158 | 32.78° C | 53% | 1021 hPa | 0 mm | - | 475 W/m² | - |
| 1788114852 | 32.78° C | 47% | 1021 hPa | 0 mm | - | 473 W/m² | - |
| 1788114548 | 31.11° C | 54% | 1021.3 hPa | 0 mm | - | 471 W/m² | - |
| 1788114243 | 32.22° C | 53% | 1021.3 hPa | 0 mm | - | 488 W/m² | - |
| 1788113939 | 32.78° C | 50% | 1021.8 hPa | 0 mm | - | 485 W/m² | - |
| 1788113635 | 32.78° C | 53% | 1021.8 hPa | 0 mm | - | 483 W/m² | - |
* Rain latest hour (hover to see other rain measurements)
** Current wind speed in m/s (hover to see current wind gust speed)